(133442) = 1998 XX59 = 2003 SV213

Discovered at Socorro on 2003-09-26 by LINEAR.

Orbit

Orbit type: Main Belt

Note: WebGL enabled browser required.

epoch2023-09-13.0
epoch JD2460200.5
perihelion date2019-03-19.06316
perihelion JD2458561.56316
argument of perihelion (°)213.28268
ascending node (°)176.52319
inclination (°)1.48739
eccentricity0.2291973
perihelion distance (AU)2.3066467
Tisserand w.r.t. Jupiter3.2
ΔV w.r.t. Earth (km/sec)9.6
semimajor axis (AU)2.9925256
mean anomaly (°)312.03927
mean daily motion (°/day)0.19039130
aphelion distance (AU)3.678
period (years)5.18
P-vector [x]0.86770335
P-vector [y]0.46154298
P-vector [z]0.18457781
Q-vector [x]-0.49707989
Q-vector [y]0.80448611
Q-vector [z]0.32513642
absolute magnitude15.53
phase slope0.15
uncertainty0
referenceMPEC 2024-A34
observations used854
oppositions18
arc length (days)9095
first opposition used1998
last opposition used2023
residual rms (arc-secs)0.69
perturbers coarse indicatorM-v
perturbers precise indicator003Ek
first observation date used1998-12-15.0
last observation date used2023-11-09.0
computer nameMPCLINUX
JD of orbit computation2456966.844819
perihelion JD uncertainty (days)5.0622E-05
argument of perihelion uncertainty (°)1.6455E-04
ascending node uncertainty (°)1.6416E-04
inclination uncertainty (°)5.6491E-06
eccentricity uncertainty 7.3770E-08
perihelion distance uncertainty (AU)2.3518E-07
Minimum Orbit Intersection Distances (in AU)
for orbit epoch: 2460200.5, reference: E2024-A34
Mercury1.97537
Venus1.58276
Earth1.31123
Mars0.85918
Jupiter1.76124
Saturn5.9939
Uranus14.8912
Neptune27.0366

Observations

870 total observations over interval: 1998 12 15.38278 – 2023 11 09.224863
These data are available for download (format description).

Date (UT) J2000 RA J2000 Dec Magn Location Ref
1998 12 15.38278 06 03 43.64 +21 03 08.2 18.9   704 – Lincoln Laboratory ETS, New Mexico MPS 3440
1998 12 15.41253 06 03 41.87 +21 03 06.2 19.5   704 – Lincoln Laboratory ETS, New Mexico MPS 3440
1998 12 15.44228 06 03 40.08 +21 03 08.8 19.1   704 – Lincoln Laboratory ETS, New Mexico MPS 3440
1998 12 16.22026 06 02 55.95 +21 03 11.1 19.3   704 – Lincoln Laboratory ETS, New Mexico MPS 3440
1998 12 16.32179 06 02 49.95 +21 03 13.3 20.1   704 – Lincoln Laboratory ETS, New Mexico MPS 3440
1998 12 16.36957 06 02 47.19 +21 03 14.5 20.4   704 – Lincoln Laboratory ETS, New Mexico MPS 3440
1998 12 16.41769 06 02 44.16 +21 03 14.9 19.6   704 – Lincoln Laboratory ETS, New Mexico MPS 3440
2001 04 27.36297 14 52 44.47 -14 59 55.7 21.0 V 691 – Steward Observatory, Kitt Peak-Spacewatch MPS 130005
2001 04 27.38442 14 52 43.46 -14 59 51.1 20.9 V 691 – Steward Observatory, Kitt Peak-Spacewatch MPS 130005
2001 04 27.40602 14 52 42.45 -14 59 45.8 21.4 V 691 – Steward Observatory, Kitt Peak-Spacewatch MPS 130005
2003 09 26.36896 04 28 52.84 +20 17 01.6 19.7   704 – Lincoln Laboratory ETS, New Mexico MPS 86349
2003 09 26.38155 04 28 53.28 +20 17 01.2 19.8   704 – Lincoln Laboratory ETS, New Mexico MPS 86349
2003 09 26.39411 04 28 53.64 +20 17 02.2 19.3   704 – Lincoln Laboratory ETS, New Mexico MPS 86349
2003 09 26.43876 04 28 54.96 +20 17 02.8 19.9 R 333 – Desert Eagle Observatory MPS 89495
2003 09 26.46172 04 28 55.68 +20 17 03.3 19.5 R 333 – Desert Eagle Observatory MPS 89495
2003 09 26.48317 04 28 56.31 +20 17 03.0 19.6 R 333 – Desert Eagle Observatory MPS 89495
2003 09 27.41890 04 29 26.06 +20 17 12.5 19.4 R 333 – Desert Eagle Observatory MPS 86349
2003 09 27.42529 04 29 26.22 +20 17 13.1 19.4 R 333 – Desert Eagle Observatory MPS 86349
2003 09 29.36099 04 30 22.67 +20 17 22.0 19.9 C 704 – Lincoln Laboratory ETS, New Mexico MPS 291266
2003 09 29.38681 04 30 23.35 +20 17 21.8 19.0 C 704 – Lincoln Laboratory ETS, New Mexico MPS 291266
2003 09 29.39983 04 30 23.75 +20 17 21.4 19.8 C 704 – Lincoln Laboratory ETS, New Mexico MPS 291266
2003 09 29.41502 04 30 24.19 +20 17 22.5 19.2 C 704 – Lincoln Laboratory ETS, New Mexico MPS 291266
2003 10 24.36155 04 32 11.87 +19 56 34.7 18.5   704 – Lincoln Laboratory ETS, New Mexico MPS 89495
2003 10 24.37360 04 32 11.68 +19 56 32.7 19.2   704 – Lincoln Laboratory ETS, New Mexico MPS 89495
2003 10 24.38582 04 32 11.39 +19 56 31.6 18.9   704 – Lincoln Laboratory ETS, New Mexico MPS 89495
2003 10 24.39785 04 32 11.13 +19 56 30.7 18.9   704 – Lincoln Laboratory ETS, New Mexico MPS 89495
2003 10 24.41544 04 32 10.82 +19 56 28.9 18.2   704 – Lincoln Laboratory ETS, New Mexico MPS 89495
2003 10 24.42765 04 32 10.56 +19 56 27.8 18.6   704 – Lincoln Laboratory ETS, New Mexico MPS 89495
2003 10 24.43977 04 32 10.28 +19 56 26.6 19.1   704 – Lincoln Laboratory ETS, New Mexico MPS 89495
2003 10 24.45189 04 32 09.99 +19 56 25.7 19.4   704 – Lincoln Laboratory ETS, New Mexico MPS 89495
2003 10 24.46405 04 32 09.71 +19 56 23.7 18.9   704 – Lincoln Laboratory ETS, New Mexico MPS 89495
2003 10 27.08989 04 31 12.25 +19 51 52.0 18.4 V 049 – Uppsala-Kvistaberg MPS 89495
2003 10 27.10332 04 31 11.91 +19 51 50.6 18.2 V 049 – Uppsala-Kvistaberg MPS 89495
2003 10 27.11652 04 31 11.58 +19 51 49.1 17.9 V 049 – Uppsala-Kvistaberg MPS 89495
2003 10 28.32759 04 30 41.05 +19 49 40.4 18.7   704 – Lincoln Laboratory ETS, New Mexico MPS 89495
2003 10 28.33997 04 30 40.78 +19 49 38.1 19.0   704 – Lincoln Laboratory ETS, New Mexico MPS 89495
2003 10 28.35236 04 30 40.46 +19 49 36.7 19.3   704 – Lincoln Laboratory ETS, New Mexico MPS 89495
2003 11 02.31387 04 28 08.59 +19 39 45.5 18.2   704 – Lincoln Laboratory ETS, New Mexico MPS 89495
2003 11 02.34999 04 28 07.17 +19 39 40.0 19.5   704 – Lincoln Laboratory ETS, New Mexico MPS 89495
2003 11 02.36210 04 28 06.77 +19 39 39.5 19.1   704 – Lincoln Laboratory ETS, New Mexico MPS 89495
2003 11 15.53110 04 18 36.22 +19 08 15.2 18.0   644 – Palomar Mountain/NEAT MPS 91003
2003 11 15.54167 04 18 35.67 +19 08 13.5 18.0   644 – Palomar Mountain/NEAT MPS 91003
2003 11 15.55492 04 18 35.00 +19 08 11.1 17.9   644 – Palomar Mountain/NEAT MPS 91003
2003 11 19.26569 04 15 24.39 +18 58 26.6 18.5 V 691 – Steward Observatory, Kitt Peak-Spacewatch MPS 91003
2003 11 19.29373 04 15 22.86 +18 58 22.3 18.6 V 691 – Steward Observatory, Kitt Peak-Spacewatch MPS 91003
2003 11 19.32095 04 15 21.36 +18 58 17.9 18.5 V 691 – Steward Observatory, Kitt Peak-Spacewatch MPS 91003
2003 11 21.26679 04 13 38.29 +18 53 06.9 18.3   704 – Lincoln Laboratory ETS, New Mexico MPS 91838
2003 11 21.27984 04 13 37.57 +18 53 04.8 18.3   704 – Lincoln Laboratory ETS, New Mexico MPS 91838
2003 11 21.29227 04 13 36.87 +18 53 03.3 18.6   704 – Lincoln Laboratory ETS, New Mexico MPS 91838
2003 11 21.30552 04 13 36.13 +18 53 00.9 18.7   704 – Lincoln Laboratory ETS, New Mexico MPS 91838
2003 11 21.31825 04 13 35.42 +18 52 58.2 18.5   704 – Lincoln Laboratory ETS, New Mexico MPS 91838
2003 11 23.27344 04 11 50.63 +18 47 45.3 18.6   704 – Lincoln Laboratory ETS, New Mexico MPS 91838
2003 11 23.28599 04 11 49.94 +18 47 42.7 18.9   704 – Lincoln Laboratory ETS, New Mexico MPS 91838
2003 11 23.29849 04 11 49.23 +18 47 41.5 19.1   704 – Lincoln Laboratory ETS, New Mexico MPS 91838
2003 11 23.31109 04 11 48.51 +18 47 39.6 18.6   704 – Lincoln Laboratory ETS, New Mexico MPS 91838
2003 11 23.32367 04 11 47.84 +18 47 37.4 18.6   704 – Lincoln Laboratory ETS, New Mexico MPS 91838
2003 11 24.22157 04 10 59.67 +18 45 12.5 18.0 R 699 – Lowell Observatory-LONEOS MPS 91838
2003 11 24.24080 04 10 58.64 +18 45 10.0   699 – Lowell Observatory-LONEOS MPS 91838
2003 11 24.25992 04 10 57.48 +18 45 06.7   699 – Lowell Observatory-LONEOS MPS 91838
2003 11 24.27903 04 10 56.45 +18 45 04.3   699 – Lowell Observatory-LONEOS MPS 91838
2003 11 26.24366 04 09 10.52 +18 39 51.4 18.2   704 – Lincoln Laboratory ETS, New Mexico MPS 91838
2003 11 26.25568 04 09 09.86 +18 39 49.4 18.5   704 – Lincoln Laboratory ETS, New Mexico MPS 91838
2003 11 26.27782 04 09 08.62 +18 39 46.2 18.6   704 – Lincoln Laboratory ETS, New Mexico MPS 91838
2003 11 26.29254 04 09 07.76 +18 39 44.5 18.6   704 – Lincoln Laboratory ETS, New Mexico MPS 91838
2003 11 26.30555 04 09 07.05 +18 39 41.5 18.8   704 – Lincoln Laboratory ETS, New Mexico MPS 91838
2003 12 01.24981 04 04 43.91 +18 26 56.7 18.3   704 – Lincoln Laboratory ETS, New Mexico MPS 92746
2003 12 01.26243 04 04 43.26 +18 26 54.9 18.7   704 – Lincoln Laboratory ETS, New Mexico MPS 92746
2003 12 01.27443 04 04 42.55 +18 26 53.1 18.6   704 – Lincoln Laboratory ETS, New Mexico MPS 92746
2003 12 01.28753 04 04 41.84 +18 26 50.7 18.7   704 – Lincoln Laboratory ETS, New Mexico MPS 92746
2003 12 01.29980 04 04 41.16 +18 26 49.4 18.5   704 – Lincoln Laboratory ETS, New Mexico MPS 92746
2003 12 01.35286 04 04 38.28 +18 26 41.1 18.5 V 691 – Steward Observatory, Kitt Peak-Spacewatch MPS 92746
2003 12 01.38078 04 04 36.76 +18 26 36.8 18.5 V 691 – Steward Observatory, Kitt Peak-Spacewatch MPS 92746
2003 12 01.40892 04 04 35.24 +18 26 32.4 18.5 V 691 – Steward Observatory, Kitt Peak-Spacewatch MPS 92746
2003 12 04.28646 04 02 07.64 +18 19 31.2 17.8 V 703 – Catalina Sky Survey MPS 92746
2003 12 04.29441 04 02 07.31 +18 19 28.9 17.9 V 703 – Catalina Sky Survey MPS 92746
2003 12 04.30237 04 02 06.86 +18 19 28.9 18.6 V 703 – Catalina Sky Survey MPS 92746
2003 12 04.31031 04 02 06.34 +18 19 27.7 18.4 V 703 – Catalina Sky Survey MPS 92746
2003 12 19.26178 03 51 28.24 +17 51 00.1 19.0   704 – Lincoln Laboratory ETS, New Mexico MPS 94707
2003 12 19.27489 03 51 27.82 +17 50 59.3 19.9   704 – Lincoln Laboratory ETS, New Mexico MPS 94707
2003 12 19.28818 03 51 27.33 +17 50 57.2 19.2   704 – Lincoln Laboratory ETS, New Mexico MPS 94707
2003 12 19.30156 03 51 26.78 +17 50 57.3 19.8   704 – Lincoln Laboratory ETS, New Mexico MPS 94707
2003 12 21.20671 03 50 27.03 +17 48 37.5 18.9   704 – Lincoln Laboratory ETS, New Mexico MPS 94707
2003 12 21.21990 03 50 26.58 +17 48 36.3 19.0   704 – Lincoln Laboratory ETS, New Mexico MPS 94707
2003 12 21.23268 03 50 26.17 +17 48 35.3 19.4   704 – Lincoln Laboratory ETS, New Mexico MPS 94707
